Tracking 21470 objects as of 25-Sep-2020
HD Live streaming from Space Station
objects crossing your sky now

DELTA 1 DEB

Track DELTA 1 DEB now!
10-day predictions


NORAD ID: 12266
Int'l Code: 1978-026DK
Perigee: 818.0 km
Apogee: 1,048.7 km
Inclination: 98.8 °
Period: 103.5 minutes
Semi major axis: 7304 km
RCS: 0.0032 m2 (small)
Launch date: March 5, 1978
Source: United States (US)
Launch site: AIR FORCE WESTERN TEST RANGE (AFWTR)

Note: This is SATELLITE DEBRIS
aabbcc
Your satellite tracking list
Your tracking list is empty




NASA's NSSDC Master Catalog

Two Line Element Set (TLE):
1 12266U 78026DK  20268.17796011 +.00000444 +00000-0 +35069-3 0  9998
2 12266 098.7711 141.0620 0157925 051.1850 310.3290 13.90690142992570
Source of the keplerian elements: AFSPC